When you browse on this site, cookies collect data to enhance your experience and personalize the content and advertising you see.
Visit our Privacy Policy to learn more. By continuing to use the site, you agree to this use of cookies and data.
  • In Portugal
  • List of Countries
  • For 7 days
  • Water Temperature
  • Satellite Maps
  • Weather Map
  • Weather Widgets
  • user-avatar
    Login

    Hourly Weather Chistyakovе (Torez)

    Today, 25 May, Saturday

    Time Temperature Precipitation Wind Pressure Humidity
    00:00 +16°C° 0 mm 1 mps 738 mmHg 86%
    01:00 +16°C° 0 mm 1 mps 738 mmHg 86%
    02:00 +15°C° 0 mm 1 mps 738 mmHg 85%
    03:00 +15°C° 0 mm 1 mps 737 mmHg 85%
    04:00 +15°C° 0.1 mm 1 mps 738 mmHg 84%
    05:00 +16°C° 0.1 mm 1 mps 738 mmHg 83%
    06:00 +16°C° 0.1 mm 1 mps 738 mmHg 82%
    07:00 +18°C° 0.2 mm 2 mps 738 mmHg 78%
    08:00 +19°C° 0.2 mm 3 mps 738 mmHg 75%
    09:00 +21°C° 0 mm 4 mps 737 mmHg 72%
    10:00 +22°C° 2.2 mm 4 mps 737 mmHg 69%
    11:00 +23°C° 2.2 mm 5 mps 737 mmHg 67%
    12:00 +23°C° 2.2 mm 6 mps 737 mmHg 65%
    13:00 +22°C° 2.5 mm 5 mps 737 mmHg 69%
    14:00 +22°C° 2.5 mm 5 mps 737 mmHg 73%
    15:00 +21°C° 2.5 mm 5 mps 737 mmHg 77%
    16:00 +20°C° 2.3 mm 5 mps 736 mmHg 82%
    17:00 +19°C° 2.3 mm 4 mps 736 mmHg 87%
    18:00 +17°C° 2.3 mm 3 mps 736 mmHg 92%
    19:00 +17°C° 0.5 mm 3 mps 736 mmHg 93%
    20:00 +17°C° 0.5 mm 3 mps 736 mmHg 94%
    21:00 +16°C° 0.5 mm 3 mps 736 mmHg 95%
    22:00 +16°C° 0.9 mm 3 mps 735 mmHg 95%
    23:00 +16°C° 0.9 mm 3 mps 735 mmHg 95%

    Tomorrow, 26 May, Sunday

    Time Temperature Precipitation Wind Pressure Humidity
    00:00 +16°C° 0.9 mm 3 mps 735 mmHg 95%
    01:00 +15°C° 0.6 mm 4 mps 735 mmHg 95%
    02:00 +15°C° 0.6 mm 4 mps 735 mmHg 95%
    03:00 +15°C° 0.6 mm 4 mps 735 mmHg 95%
    04:00 +15°C° 0.9 mm 4 mps 735 mmHg 95%
    05:00 +15°C° 0.9 mm 4 mps 736 mmHg 95%
    06:00 +15°C° 0.9 mm 4 mps 736 mmHg 94%
    07:00 +15°C° 0.6 mm 5 mps 736 mmHg 92%
    08:00 +16°C° 0.6 mm 5 mps 736 mmHg 90%
    09:00 +16°C° 0.6 mm 6 mps 736 mmHg 88%
    10:00 +17°C° 0.7 mm 6 mps 737 mmHg 85%
    11:00 +19°C° 0.7 mm 6 mps 737 mmHg 82%
    12:00 +20°C° 0.7 mm 7 mps 737 mmHg 79%
    13:00 +21°C° 1 mm 6 mps 737 mmHg 76%
    14:00 +21°C° 1 mm 6 mps 737 mmHg 73%
    15:00 +22°C° 1 mm 6 mps 737 mmHg 70%
    16:00 +22°C° 0.9 mm 5 mps 737 mmHg 72%
    17:00 +22°C° 0.9 mm 4 mps 737 mmHg 74%
    18:00 +22°C° 0.9 mm 4 mps 737 mmHg 75%
    19:00 +20°C° 0.4 mm 3 mps 737 mmHg 79%
    20:00 +19°C° 0.4 mm 3 mps 738 mmHg 83%
    21:00 +18°C° 0.4 mm 3 mps 738 mmHg 86%
    22:00 +18°C° 0.6 mm 3 mps 738 mmHg 87%
    23:00 +17°C° 0.6 mm 3 mps 739 mmHg 87%

    Day after tomorrow, 27 May, Monday

    Time Temperature Precipitation Wind Pressure Humidity
    00:00 +17°C° 0.6 mm 3 mps 739 mmHg 88%
    01:00 +17°C° 0 mm 3 mps 740 mmHg 89%
    02:00 +16°C° 0 mm 3 mps 740 mmHg 90%
    03:00 +16°C° 0 mm 3 mps 740 mmHg 91%
    04:00 +16°C° 0 mm 3 mps 741 mmHg 91%
    05:00 +16°C° 0 mm 3 mps 741 mmHg 91%
    06:00 +16°C° 0 mm 3 mps 742 mmHg 90%
    07:00 +18°C° 0 mm 3 mps 742 mmHg 83%
    08:00 +19°C° 0 mm 3 mps 743 mmHg 76%
    09:00 +21°C° 0 mm 4 mps 744 mmHg 69%
    10:00 +22°C° 0 mm 4 mps 744 mmHg 64%
    11:00 +23°C° 0 mm 4 mps 744 mmHg 59%
    12:00 +25°C° 0 mm 4 mps 744 mmHg 54%
    13:00 +25°C° 0 mm 3 mps 744 mmHg 52%
    14:00 +26°C° 0 mm 3 mps 744 mmHg 51%
    15:00 +26°C° 0 mm 3 mps 744 mmHg 49%
    16:00 +26°C° 0 mm 3 mps 744 mmHg 52%
    17:00 +26°C° 0 mm 2 mps 744 mmHg 56%
    18:00 +25°C° 0 mm 2 mps 744 mmHg 59%
    19:00 +24°C° 0 mm 2 mps 745 mmHg 62%
    20:00 +22°C° 0 mm 1 mps 745 mmHg 66%
    21:00 +20°C° 0 mm 1 mps 745 mmHg 70%
    22:00 +20°C° 0 mm 1 mps 745 mmHg 71%
    23:00 +17°C° 0 mm 0 mps 745 mmHg 73%

    28 May, Tuesday

    Time Temperature Precipitation Wind Pressure Humidity
    00:00 +17°C° 0 mm 0 mps 746 mmHg 75%
    01:00 +16°C° 0 mm 0 mps 746 mmHg 76%
    02:00 +16°C° 0 mm 0 mps 746 mmHg 76%
    03:00 +16°C° 0 mm 0 mps 746 mmHg 77%
    04:00 +16°C° 0 mm 0 mps 746 mmHg 77%
    05:00 +17°C° 0 mm 0 mps 746 mmHg 77%
    06:00 +18°C° 0 mm 0 mps 746 mmHg 76%
    07:00 +21°C° 0 mm 1 mps 746 mmHg 71%
    08:00 +23°C° 0 mm 1 mps 747 mmHg 65%
    09:00 +25°C° 0 mm 1 mps 747 mmHg 60%
    10:00 +26°C° 0 mm 1 mps 747 mmHg 56%
    11:00 +27°C° 0 mm 1 mps 747 mmHg 53%
    12:00 +28°C° 0 mm 1 mps 747 mmHg 49%
    13:00 +28°C° 0 mm 1 mps 747 mmHg 49%
    14:00 +28°C° 0 mm 1 mps 746 mmHg 48%
    15:00 +28°C° 0 mm 2 mps 746 mmHg 48%
    16:00 +28°C° 0 mm 2 mps 746 mmHg 52%
    17:00 +27°C° 0 mm 2 mps 746 mmHg 57%
    18:00 +26°C° 0 mm 2 mps 746 mmHg 62%
    19:00 +25°C° 0 mm 2 mps 746 mmHg 65%
    20:00 +23°C° 0 mm 2 mps 746 mmHg 69%
    21:00 +22°C° 0 mm 1 mps 746 mmHg 72%
    22:00 +21°C° 0 mm 1 mps 746 mmHg 73%
    23:00 +21°C° 0 mm 1 mps 746 mmHg 75%

    29 May, Wednesday

    Time Temperature Precipitation Wind Pressure Humidity
    00:00 +20°C° 0 mm 1 mps 746 mmHg 76%
    01:00 +20°C° 0 mm 1 mps 746 mmHg 77%
    02:00 +20°C° 0 mm 1 mps 746 mmHg 78%
    03:00 +19°C° 0 mm 1 mps 745 mmHg 79%
    04:00 +19°C° 0 mm 1 mps 745 mmHg 79%
    05:00 +19°C° 0 mm 2 mps 745 mmHg 80%
    06:00 +19°C° 0 mm 2 mps 746 mmHg 81%
    07:00 +21°C° 0 mm 2 mps 746 mmHg 74%
    08:00 +22°C° 0 mm 3 mps 746 mmHg 68%
    09:00 +25°C° 0 mm 4 mps 746 mmHg 62%
    10:00 +26°C° 0 mm 5 mps 746 mmHg 60%
    11:00 +27°C° 0 mm 5 mps 746 mmHg 58%
    12:00 +27°C° 0 mm 5 mps 746 mmHg 56%
    13:00 +28°C° 0 mm 5 mps 745 mmHg 55%
    14:00 +28°C° 0 mm 5 mps 745 mmHg 54%
    15:00 +28°C° 0 mm 5 mps 745 mmHg 53%
    16:00 +28°C° 0 mm 4 mps 745 mmHg 56%
    17:00 +28°C° 0 mm 4 mps 745 mmHg 59%
    18:00 +27°C° 0 mm 3 mps 745 mmHg 62%
    19:00 +26°C° 0 mm 3 mps 745 mmHg 65%
    20:00 +24°C° 0 mm 3 mps 745 mmHg 69%
    21:00 +21°C° 0 mm 3 mps 745 mmHg 73%
    22:00 +20°C° 0 mm 3 mps 745 mmHg 74%
    23:00 +20°C° 0 mm 3 mps 745 mmHg 75%

    30 May, Thursday

    Time Temperature Precipitation Wind Pressure Humidity
    00:00 +19°C° 0 mm 3 mps 745 mmHg 76%
    01:00 +19°C° 0 mm 3 mps 744 mmHg 76%
    02:00 +18°C° 0 mm 3 mps 744 mmHg 75%
    03:00 +18°C° 0 mm 3 mps 744 mmHg 75%
    04:00 +18°C° 0 mm 3 mps 744 mmHg 75%
    05:00 +18°C° 0 mm 3 mps 745 mmHg 75%
    06:00 +18°C° 0 mm 3 mps 745 mmHg 75%
    07:00 +21°C° 0 mm 3 mps 745 mmHg 69%
    08:00 +23°C° 0 mm 4 mps 745 mmHg 63%
    09:00 +26°C° 0 mm 4 mps 745 mmHg 57%
    10:00 +27°C° 0 mm 4 mps 745 mmHg 53%
    11:00 +28°C° 0 mm 5 mps 745 mmHg 48%
    12:00 +29°C° 0 mm 5 mps 745 mmHg 44%
    13:00 +29°C° 0 mm 4 mps 745 mmHg 44%
    14:00 +30°C° 0 mm 4 mps 745 mmHg 44%
    15:00 +30°C° 0 mm 4 mps 745 mmHg 44%
    16:00 +30°C° 0 mm 3 mps 745 mmHg 48%
    17:00 +29°C° 0 mm 3 mps 745 mmHg 52%
    18:00 +29°C° 0 mm 2 mps 744 mmHg 56%
    19:00 +27°C° 0 mm 2 mps 744 mmHg 59%
    20:00 +25°C° 0 mm 2 mps 744 mmHg 63%
    21:00 +23°C° 0 mm 2 mps 745 mmHg 66%
    22:00 +21°C° 0 mm 2 mps 744 mmHg 67%
    23:00 +21°C° 0 mm 2 mps 744 mmHg 67%
    Show more